Location: Haliburton Scout Reserve
(45.0900°N, 78.3200°W)
Time: 00:37:55
(UTC-04:00)

BEESAT - Visible Passes

Search period start: 16 April 2024 00:00
Search period end: 26 April 2024 00:00
Orbit: 693 x 702 km, 98.5° (Epoch: 15 April)

Date Brightness Start Highest point End Pass type
(mag) Time Alt. Az. Time Alt. Az. Time Alt. Az.
16 Apr ? 00:21:01 10° N 00:24:18 26° NW 00:24:18 26° NW visible
16 Apr ? 23:24:11 10° NNE 23:27:24 44° NNE 23:27:24 44° NNE visible
17 Apr ? 01:03:52 10° NNW 01:05:50 13° WNW 01:06:12 12° WNW visible
17 Apr ? 22:28:27 10° NE 22:30:32 20° ENE 22:30:32 20° ENE visible
18 Apr ? 00:05:45 10° N 00:09:19 35° NW 00:09:19 35° NW visible
18 Apr ? 23:09:12 10° NNE 23:12:25 41° NE 23:12:25 41° NE visible
19 Apr ? 00:48:02 10° NNW 00:51:01 17° WNW 00:51:13 17° WNW visible
19 Apr ? 22:13:56 10° NE 22:15:32 16° ENE 22:15:32 16° ENE visible
19 Apr ? 23:50:34 10° N 23:54:19 46° NW 23:54:19 46° NW visible
20 Apr ? 22:54:17 10° NNE 22:57:25 35° NE 22:57:25 35° NE visible
21 Apr ? 00:32:31 10° NNW 00:36:09 23° WNW 00:36:13 23° WNW visible
21 Apr ? 21:59:46 10° ENE 22:00:31 12° ENE 22:00:31 12° ENE visible
21 Apr ? 23:35:26 10° N 23:39:19 57° NNW 23:39:19 57° NNW visible
22 Apr ? 01:16:43 10° NW 01:16:54 10° NW 01:17:06 10° WNW visible
22 Apr ? 22:39:27 10° NNE 22:42:24 28° ENE 22:42:24 28° ENE visible
23 Apr ? 00:17:08 10° N 00:21:11 30° WNW 00:21:11 30° WNW visible
23 Apr ? 23:20:22 10° NNE 23:24:17 60° NNE 23:24:17 60° NNE visible
24 Apr ? 00:59:44 10° NNW 01:02:05 14° WNW 01:03:05 13° WNW visible
24 Apr ? 22:24:45 10° NE 22:27:22 21° ENE 22:27:22 21° ENE visible
25 Apr ? 00:01:51 10° N 00:06:09 41° WNW 00:06:09 41° WNW visible
25 Apr ? 23:05:22 10° NNE 23:09:14 50° ENE 23:09:14 50° ENE visible
